Location: France
(46.2276°N, 2.2137°E)
Time: 07:43:05
(UTC+02:00)

ISS - Visible Passes

Search period start: 20 October 2019 00:00
Search period end: 29 October 2019 23:00
Orbit: 411 x 421 km, 51.6° (Epoch: 20 October)

Date Brightness Start Highest point End Pass type
(mag) Time Alt. Az. Time Alt. Az. Time Alt. Az.
23 Oct -0.8 07:36:22 10° S 07:38:40 17° SE 07:40:57 10° E visible
24 Oct -0.5 06:49:36 10° SE 06:50:17 10° SE 06:50:59 10° ESE visible
25 Oct -2.4 07:34:43 10° SW 07:37:53 40° SE 07:41:04 10° ENE visible
26 Oct -1.7 06:46:39 10° SSW 06:49:23 25° SE 06:52:13 10° E visible
27 Oct -1.2 05:00:39 16° SE 05:00:55 16° SE 05:03:03 10° E visible
27 Oct -3.8 06:33:53 10° WSW 06:37:15 90° NW 06:40:37 10° ENE visible
28 Oct -3.3 05:47:24 34° SSW 05:48:37 59° SSE 05:51:57 10° ENE visible
29 Oct -1.8 05:01:05 28° ESE 05:01:05 28° ESE 05:03:10 10° ENE visible
29 Oct -3.4 06:34:00 14° W 06:36:44 48° NNW 06:40:00 10° ENE visible
